Location: Calmejanne
(44.7523°N, 1.9418°E)
Time: 21:20:21
(UTC+00:00)

YAOGAN 11 - Pass Details

Date: 14 May 2026
Orbit: 599 x 646 km, 98.4° (Epoch: 10 June)

Event Time Altitude Azimuth Distance (km) Brightness Sun altitude
Rises 20:29:05 0° 17° (NNE) 2,944 7.9 -11.9°
Reaches altitude 10° 20:31:19 10° 21° (NNE) 2,037 7.0 -12.2°
Maximum altitude 20:35:42 60° 101° (ESE) 737 4.2 -12.8°
Drops below altitude 10° 20:40:06 10° 182° (S) 2,037 6.3 -13.3°
Enters shadow 20:40:23 - 183° (S) 2,148 6.4 -13.4°
